This is the latest recevied weather packets stored in our database for station/object N5CNB. If no packets are shown the sender has not sent any weather packets the latest 10 day(s).
| Time | Temp. | Humidity | Pressure | Rain* | Wind** | Luminosity | Snow |
|---|---|---|---|---|---|---|---|
| 1777649422 | 15.56° C | 92% | 1013.6 hPa | 9.91 mm | - | - | - |
| 1777648524 | 16.11° C | 93% | 1013 hPa | 8.64 mm | - | - | - |
| 1777647634 | 16.11° C | 93% | 1013 hPa | 5.84 mm | - | - | - |
| 1777646715 | 16.11° C | 93% | 1012.9 hPa | 2.03 mm | - | - | - |
| 1777645826 | 16.11° C | 93% | 1011.9 hPa | 1.78 mm | - | - | - |
| 1777644939 | 16.11° C | 93% | 1011.5 hPa | 6.86 mm | - | - | - |
| 1777644030 | 15.56° C | 93% | 1011.4 hPa | 9.14 mm | - | - | - |
| 1777643126 | 15.56° C | 93% | 1012.2 hPa | 15.49 mm | - | - | - |
| 1777642235 | 15.56° C | 93% | 1013.1 hPa | 19.56 mm | - | - | - |
| 1777641322 | 15.56° C | 93% | 1014.5 hPa | 17.02 mm | - | - | - |
| 1777640424 | 15.56° C | 92% | 1012.3 hPa | 19.56 mm | - | - | - |
| 1777639527 | 15.56° C | 92% | 1014.1 hPa | 23.62 mm | - | - | - |
| 1777638627 | 15.56° C | 92% | 1012.6 hPa | 22.86 mm | - | - | - |
| 1777637717 | 16.11° C | 92% | 1011.8 hPa | 22.61 mm | - | - | - |
| 1777636810 | 16.11° C | 92% | 1012.2 hPa | 20.07 mm | - | - | - |
| 1777635906 | 16.11° C | 92% | 1012.4 hPa | 14.73 mm | - | - | - |
| 1777635010 | 16.11° C | 92% | 1011.8 hPa | 17.27 mm | - | - | - |
| 1777634126 | 16.11° C | 92% | 1011.8 hPa | 19.56 mm | - | - | - |
| 1777633219 | 16.11° C | 92% | 1011.4 hPa | 17.27 mm | - | - | - |
| 1777632305 | 16.11° C | 92% | 1011.7 hPa | 13.72 mm | - | - | - |
| 1777631408 | 16.11° C | 92% | 1011.7 hPa | 10.41 mm | - | - | - |
| 1777630516 | 16.67° C | 92% | 1011.7 hPa | 5.59 mm | - | - | - |
| 1777629619 | 16.67° C | 92% | 1011.1 hPa | 6.1 mm | - | - | - |
| 1777628728 | 16.67° C | 92% | 1011 hPa | 5.08 mm | - | - | - |
| 1777627809 | 16.67° C | 92% | 1012.2 hPa | 8.64 mm | - | - | - |
* Rain latest hour (hover to see other rain measurements)
** Current wind speed in m/s (hover to see current wind gust speed)